FW6992 Weather Reports


Display with metric or nautical units.
time (UTC)temp
F
wind
direction
speed
MPH
gust
MPH
rain 1hr
in
rain 24hr
in
rain mn
in
humidity
%
barometer
mb
20260904123615 80 348 0.0 2.0 0.00 0.00 0.00 81 1017.9
20260904123110 80 317 0.0 2.0 0.00 0.00 0.00 82 1017.8
20260904122605 78 143 0.0 0.0 0.00 0.00 0.00 82 1017.7
20260904122100 78 151 0.0 0.0 0.00 0.00 0.00 82 1017.8
20260904121555 78 135 0.0 1.0 0.00 0.00 0.00 83 1017.7
20260904121051 77 201 0.0 0.0 0.00 0.00 0.00 85 1017.6
20260904120548 77 160 0.0 1.0 0.00 0.00 0.00 85 1017.7
20260904120043 77 290 0.0 1.0 0.00 0.00 0.00 86 1017.7
20260904115538 76 290 0.0 0.0 0.00 0.00 0.00 86 1017.8
20260904115033 76 290 0.0 0.0 0.00 0.00 0.00 88 1017.8
20260904114527 75 238 0.0 0.0 0.00 0.00 0.00 89 1017.8
20260904114022 75 330 0.0 0.0 0.00 0.00 0.00 90 1017.8
20260904113522 74 245 0.0 1.0 0.00 0.00 0.00 91 1017.5
20260904113021 74 290 0.0 1.0 0.00 0.00 0.00 91 1017.7
20260904112516 74 238 0.0 0.0 0.00 0.00 0.00 91 1017.8
20260904112012 73 263 0.0 0.0 0.00 0.00 0.00 91 1017.7
20260904111508 73 150 0.0 0.0 0.00 0.00 0.00 91 1017.5
20260904111004 73 234 0.0 0.0 0.00 0.00 0.00 91 1017.8
20260904110503 73 263 0.0 1.0 0.00 0.00 0.00 91 1017.6
20260904105953 73 251 0.0 1.0 0.00 0.00 0.00 91 1017.6
20260904105452 73 138 0.0 1.0 0.00 0.00 0.00 91 1017.7
20260904104948 73 308 0.0 0.0 0.00 0.00 0.00 91 1017.7
20260904104448 73 217 1.0 1.0 0.00 0.00 0.00 91 1017.6
20260904103939 73 251 0.0 0.0 0.00 0.00 0.00 91 1017.6
20260904103434 73 335 0.0 1.0 0.00 0.00 0.00 91 1017.6
20260904102930 73 290 0.0 0.0 0.00 0.00 0.00 91 1017.6
20260904102425 73 233 0.0 0.0 0.00 0.00 0.00 90 1017.6
20260904101920 73 311 0.0 1.0 0.00 0.00 0.00 90 1017.5
20260904101417 73 181 0.0 1.0 0.00 0.00 0.00 90 1017.5
20260904100907 74 243 0.0 1.0 0.00 0.00 0.00 90 1017.6
20260904100403 74 251 0.0 0.0 0.00 0.00 0.00 90 1017.5
20260904095856 74 58 0.0 1.0 0.00 0.00 0.00 90 1017.4
20260904095351 74 308 0.0 1.0 0.00 0.00 0.00 90 1017.4
20260904094847 74 140 0.0 2.0 0.00 0.00 0.00 90 1017.4
20260904094342 74 215 0.0 1.0 0.00 0.00 0.00 90 1017.3
20260904093838 74 87 0.0 1.0 0.00 0.00 0.00 90 1017.3
20260904093338 74 104 0.0 1.0 0.00 0.00 0.00 90 1017.7
20260904092833 74 209 0.0 1.0 0.00 0.00 0.00 90 1017.5
20260904092330 74 249 0.0 1.0 0.00 0.00 0.00 89 1017.8
20260904091826 74 110 0.0 1.0 0.00 0.00 0.00 89 1017.8
20260904091321 74 238 0.0 1.0 0.00 0.00 0.00 89 1017.8
20260904090815 75 245 0.0 0.0 0.00 0.00 0.00 89 1017.8
20260904090312 75 347 0.0 0.0 0.00 0.00 0.00 88 1017.9
20260904085806 75 290 0.0 0.0 0.00 0.00 0.00 88 1018.0
20260904085256 75 150 0.0 0.0 0.00 0.00 0.00 88 1017.8
20260904084750 75 183 0.0 0.0 0.00 0.00 0.00 87 1017.7
20260904084246 75 137 0.0 1.0 0.00 0.00 0.00 87 1017.6
20260904083742 75 182 0.0 0.0 0.00 0.00 0.00 86 1017.6
20260904083239 75 48 0.0 1.0 0.00 0.00 0.00 87 1018.0
20260904082738 75 330 0.0 0.0 0.00 0.00 0.00 87 1017.7
20260904082233 75 233 0.0 1.0 0.00 0.00 0.00 87 1017.5
20260904081723 75 233 0.0 1.0 0.00 0.00 0.00 86 1017.6
20260904081219 75 357 0.0 0.0 0.00 0.00 0.00 86 1017.7
20260904080714 75 347 0.0 0.0 0.00 0.00 0.00 86 1017.5
20260904080210 75 175 0.0 0.0 0.00 0.00 0.00 85 1017.2
20260904075706 76 245 0.0 0.0 0.00 0.00 0.00 86 1017.5
20260904075201 76 185 0.0 0.0 0.00 0.00 0.00 86 1017.5
20260904074659 76 185 0.0 0.0 0.00 0.00 0.00 86 1017.4
20260904074154 76 185 0.0 0.0 0.00 0.00 0.00 85 1017.4
20260904073650 76 185 0.0 0.0 0.00 0.00 0.00 85 1017.1
20260904073146 76 185 0.0 0.0 0.00 0.00 0.00 84 1017.4
20260904072642 76 233 0.0 0.0 0.00 0.00 0.00 84 1017.2
20260904072136 76 233 0.0 0.0 0.00 0.00 0.00 84 1017.0
20260904071632 76 226 0.0 0.0 0.00 0.00 0.00 84 1017.2
20260904071126 76 226 0.0 0.0 0.00 0.00 0.00 84 1017.1
20260904070625 76 263 0.0 0.0 0.00 0.00 0.00 83 1016.9
20260904070120 76 263 0.0 0.0 0.00 0.00 0.00 84 1017.0
20260904065615 76 263 0.0 0.0 0.00 0.00 0.00 83 1016.9
20260904065112 76 263 0.0 0.0 0.00 0.00 0.00 84 1017.0
20260904064607 76 263 0.0 0.0 0.00 0.00 0.00 84 1016.9
20260904064107 76 263 0.0 0.0 0.00 0.00 0.00 84 1016.9
20260904063603 76 263 0.0 0.0 0.00 0.00 0.00 85 1016.8
20260904063104 76 251 0.0 0.0 0.00 0.00 0.00 85 1016.9
20260904062600 76 238 0.0 0.0 0.00 0.00 0.00 86 1017.0
20260904062055 76 318 0.0 0.0 0.00 0.00 0.00 86 1016.9
20260904061551 76 318 0.0 0.0 0.00 0.00 0.00 85 1016.7
20260904061047 76 238 0.0 0.0 0.00 0.00 0.00 85 1017.0
20260904060543 77 163 0.0 1.0 0.00 0.00 0.00 84 1016.7
20260904060040 76 314 0.0 0.0 0.00 0.00 0.00 85 1016.9
20260904055539 76 305 0.0 0.0 0.00 0.00 0.00 85 1017.0
20260904055035 76 305 0.0 0.0 0.00 0.00 0.00 85 1017.1
20260904054531 76 305 0.0 0.0 0.00 0.00 0.00 85 1017.0
20260904054026 76 305 0.0 0.0 0.00 0.00 0.00 85 1017.0
20260904053526 76 4 0.0 0.0 0.00 0.00 0.00 85 1017.5
20260904053021 77 330 0.0 0.0 0.00 0.00 0.00 85 1017.7
20260904052517 77 256 0.0 0.0 0.00 0.00 0.00 84 1018.1
20260904052013 77 216 0.0 0.0 0.00 0.00 0.00 82 1018.5
20260904051510 77 216 0.0 0.0 0.00 0.00 0.00 82 1018.8
20260904051008 77 216 0.0 0.0 0.00 0.00 0.00 82 1018.8
20260904050505 77 228 4.0 4.0 0.00 0.00 0.00 82 1019.2
20260904050000 77 3 0.0 2.0 0.00 0.00 0.00 82 1019.1
20260904045456 77 251 0.0 0.0 0.00 0.00 0.00 81 1018.6
20260904044950 77 251 0.0 0.0 0.00 0.00 0.00 81 1018.6
20260904044446 77 251 0.0 0.0 0.00 0.00 0.00 81 1018.4
20260904043942 77 251 0.0 0.0 0.00 0.00 0.00 81 1018.5
20260904043439 77 320 0.0 0.0 0.00 0.00 0.00 81 1018.5
20260904042934 77 320 0.0 0.0 0.00 0.00 0.00 81 1018.6
20260904042430 77 320 0.0 0.0 0.00 0.00 0.00 82 1018.8
20260904041925 77 320 0.0 0.0 0.00 0.00 0.00 82 1018.6
20260904041421 77 320 0.0 0.0 0.00 0.00 0.00 81 1018.6
20260904040917 77 320 0.0 0.0 0.00 0.00 0.00 81 1018.5
20260904040412 77 226 0.0 0.0 0.00 0.00 0.00 80 1018.7
20260904035908 77 226 0.0 0.0 0.00 0.00 0.00 80 1018.7
20260904035403 77 226 0.0 0.0 0.00 0.00 0.00 80 1018.7
20260904034903 77 226 0.0 0.0 0.00 0.00 0.00 79 1018.9
20260904034353 78 226 0.0 0.0 0.00 0.00 0.00 78 1019.1
20260904033849 78 226 0.0 0.0 0.00 0.00 0.00 78 1018.9
20260904033344 78 226 0.0 0.0 0.00 0.00 0.00 77 1019.0
20260904032840 78 195 0.0 0.0 0.00 0.00 0.00 77 1018.9
20260904032340 78 305 0.0 0.0 0.00 0.00 0.00 76 1019.0
20260904031834 78 330 0.0 0.0 0.00 0.00 0.00 77 1018.7
20260904031329 78 138 0.0 0.0 0.00 0.00 0.00 77 1018.4
20260904030825 78 318 0.0 0.0 0.00 0.00 0.00 76 1018.3
20260904030321 78 245 0.0 0.0 0.00 0.00 0.00 77 1018.5
20260904025817 78 276 0.0 0.0 0.00 0.00 0.00 77 1018.5
20260904025312 78 276 0.0 0.0 0.00 0.00 0.00 76 1018.5
20260904024806 78 276 0.0 0.0 0.00 0.00 0.00 76 1018.6
20260904024301 78 276 0.0 0.0 0.00 0.00 0.00 76 1018.5
20260904023758 78 276 0.0 0.0 0.00 0.00 0.00 76 1018.6
20260904023254 79 290 0.0 1.0 0.00 0.00 0.00 75 1018.6
20260904022752 79 251 0.0 0.0 0.00 0.00 0.00 75 1018.7
20260904022250 79 251 0.0 0.0 0.00 0.00 0.00 74 1018.5
20260904021747 79 251 0.0 0.0 0.00 0.00 0.00 73 1018.8
20260904021247 79 251 0.0 0.0 0.00 0.00 0.00 73 1018.7
20260904020742 79 343 0.0 0.0 0.00 0.00 0.00 72 1018.6
20260904020242 79 256 0.0 0.0 0.00 0.00 0.00 74 1018.5
20260904015740 80 256 0.0 0.0 0.00 0.00 0.00 74 1018.4
20260904015236 80 256 0.0 0.0 0.00 0.00 0.00 72 1018.6
20260904014734 80 256 0.0 0.0 0.00 0.00 0.00 73 1018.3
20260904014230 80 185 0.0 0.0 0.00 0.00 0.00 72 1018.3
20260904013726 80 185 0.0 0.0 0.00 0.00 0.00 73 1018.3
20260904013222 80 185 0.0 0.0 0.00 0.00 0.00 73 1017.9
20260904012717 79 185 0.0 0.0 0.00 0.00 0.00 73 1018.1
20260904012216 79 185 0.0 0.0 0.00 0.00 0.00 74 1018.1
20260904011716 79 185 0.0 0.0 0.00 0.00 0.00 73 1018.4
20260904011212 79 185 0.0 0.0 0.00 0.00 0.00 74 1018.4
20260904010706 79 185 0.0 0.0 0.00 0.00 0.00 73 1018.6
20260904010203 80 185 0.0 0.0 0.00 0.00 0.00 72 1018.7
20260904005658 80 185 0.0 0.0 0.00 0.00 0.00 72 1018.7
20260904005154 80 185 0.0 0.0 0.00 0.00 0.00 72 1018.7
20260904004650 80 185 0.0 0.0 0.00 0.00 0.00 72 1018.9
20260904004149 80 185 0.0 0.0 0.00 0.00 0.00 72 1018.9
20260904003645 80 185 0.0 0.0 0.00 0.00 0.00 72 1018.8
20260904003141 81 185 0.0 0.0 0.00 0.00 0.00 72 1018.8
20260904002637 81 168 0.0 0.0 0.00 0.00 0.00 73 1018.6
20260904002132 81 168 0.0 0.0 0.00 0.00 0.00 73 1018.7
20260904001627 81 168 0.0 0.0 0.00 0.00 0.00 73 1018.8
20260904001126 82 343 0.0 0.0 0.00 0.00 0.00 71 1018.7
20260904000621 82 343 0.0 0.0 0.00 0.00 0.00 71 1018.6
20260904000117 82 343 0.0 0.0 0.00 0.00 0.00 71 1018.6
20260903235616 82 343 0.0 0.0 0.00 0.00 0.00 71 1018.6
20260903235113 82 343 0.0 0.0 0.00 0.00 0.00 71 1018.4
20260903234607 82 343 0.0 0.0 0.00 0.00 0.00 71 1018.2
20260903234103 82 343 0.0 0.0 0.00 0.00 0.00 71 1018.1
20260903233559 82 343 0.0 0.0 0.00 0.00 0.00 71 1017.7
20260903233054 82 343 0.0 0.0 0.00 0.00 0.00 70 1018.0
20260903232544 83 251 0.0 0.0 0.00 0.00 0.00 69 1018.0
20260903232039 83 251 0.0 0.0 0.00 0.00 0.00 69 1017.7
20260903231533 83 251 0.0 0.0 0.00 0.00 0.00 69 1017.9
20260903231027 83 251 0.0 0.0 0.00 0.00 0.00 69 1017.9
20260903230524 83 251 0.0 0.0 0.00 0.00 0.00 69 1017.8
20260903230022 84 185 0.0 0.0 0.00 0.00 0.00 68 1017.7
20260903225520 84 185 0.0 0.0 0.00 0.00 0.00 66 1017.7
20260903225016 84 185 0.0 0.0 0.00 0.00 0.00 66 1017.9
20260903224512 85 354 0.0 0.0 0.00 0.00 0.00 66 1017.9
20260903224008 85 354 0.0 0.0 0.00 0.00 0.00 66 1017.7
20260903223507 85 354 0.0 0.0 0.00 0.00 0.00 66 1017.9
20260903223007 85 354 0.0 0.0 0.00 0.00 0.00 65 1017.6
20260903222501 85 354 0.0 0.0 0.00 0.00 0.00 67 1017.6
20260903222000 85 341 0.0 0.0 0.00 0.00 0.00 66 1017.6
20260903221455 86 354 0.0 0.0 0.00 0.00 0.00 65 1017.6
20260903220952 86 354 0.0 0.0 0.00 0.00 0.00 65 1017.7
20260903220447 86 298 0.0 0.0 0.00 0.00 0.00 64 1017.3
20260903215944 86 263 0.0 0.0 0.00 0.00 0.00 64 1017.7
20260903215441 86 251 0.0 0.0 0.00 0.00 0.00 64 1017.8
20260903214939 86 226 0.0 0.0 0.00 0.00 0.00 63 1017.8
20260903214436 86 206 0.0 2.0 0.00 0.00 0.00 65 1017.6
20260903213935 86 131 0.0 1.0 0.00 0.00 0.00 62 1017.8
20260903213430 85 276 0.0 0.0 0.00 0.00 0.00 66 1018.0
20260903212926 85 58 0.0 0.0 0.00 0.00 0.00 65 1018.1
20260903212422 85 305 0.0 0.0 0.00 0.00 0.00 66 1017.9
20260903211921 85 276 0.0 0.0 0.00 0.00 0.00 65 1017.9
20260903211417 86 130 1.0 1.0 0.00 0.00 0.00 64 1018.2
20260903210914 87 6 0.0 0.0 0.00 0.00 0.00 62 1018.0
20260903210413 88 330 1.0 3.0 0.00 0.00 0.00 63 1018.3
20260903205908 89 239 0.0 0.0 0.00 0.00 0.00 65 1018.1
20260903205408 91 138 0.0 0.0 0.00 0.00 0.00 60 1018.3
20260903204902 91 138 0.0 0.0 0.00 0.00 0.00 60 1018.4
20260903204359 92 128 0.0 0.0 0.00 0.00 0.00 58 1018.3
20260903203854 91 181 0.0 0.0 0.00 0.00 0.00 61 1018.2
20260903203350 91 223 0.0 0.0 0.00 0.00 0.00 60 1018.4
20260903202848 90 354 0.0 0.0 0.00 0.00 0.00 62 1018.3
20260903202345 90 216 0.0 0.0 0.00 0.00 0.00 58 1018.4
20260903201845 91 263 0.0 0.0 0.00 0.00 0.00 58 1018.4
20260903201340 91 263 0.0 0.0 0.00 0.00 0.00 58 1018.7
20260903200839 91 263 0.0 0.0 0.00 0.00 0.00 58 1018.6
20260903200334 91 263 0.0 0.0 0.00 0.00 0.00 58 1018.5
20260903195829 93 168 0.0 0.0 0.00 0.00 0.00 52 1018.6
20260903195326 93 168 0.0 0.0 0.00 0.00 0.00 52 1018.4
20260903194820 93 168 0.0 0.0 0.00 0.00 0.00 52 1018.3
20260903194316 93 168 0.0 0.0 0.00 0.00 0.00 52 1018.6
20260903193812 93 168 0.0 0.0 0.00 0.00 0.00 52 1018.6
20260903193307 93 168 0.0 0.0 0.00 0.00 0.00 52 1018.1
20260903192802 93 168 0.0 0.0 0.00 0.00 0.00 52 1018.8
20260903192258 94 343 0.0 0.0 0.00 0.00 0.00 50 1018.7
20260903191754 98 248 0.0 1.0 0.00 0.00 0.00 46 1018.8
20260903191250 98 248 0.0 1.0 0.00 0.00 0.00 46 1019.0
20260903190744 98 248 0.0 1.0 0.00 0.00 0.00 46 1018.7
20260903190244 98 248 0.0 1.0 0.00 0.00 0.00 46 1019.2
20260903185739 98 248 0.0 1.0 0.00 0.00 0.00 46 1019.0
20260903185238 98 248 0.0 1.0 0.00 0.00 0.00 46 1019.1
20260903184735 98 248 0.0 1.0 0.00 0.00 0.00 46 1019.1
20260903184231 98 248 0.0 1.0 0.00 0.00 0.00 46 1019.4
20260903183726 98 255 0.0 1.0 0.00 0.00 0.00 48 1019.4
20260903183220 97 223 0.0 1.0 0.00 0.00 0.00 45 1019.5
20260903182719 96 263 0.0 2.0 0.00 0.00 0.00 53 1019.6
20260903182215 96 212 0.0 2.0 0.00 0.00 0.00 52 1019.6
20260903181713 96 76 1.0 2.0 0.00 0.00 0.00 48 1019.6
20260903181203 97 256 0.0 0.0 0.00 0.00 0.00 49 1019.8
20260903180659 97 248 1.0 1.0 0.00 0.00 0.00 47 1019.5
20260903180157 96 352 0.0 0.0 0.00 0.00 0.00 52 1019.7
20260903175657 96 14 0.0 2.0 0.00 0.00 0.00 50 1019.6
20260903175151 93 119 2.0 2.0 0.00 0.00 0.00 52 1019.7
20260903174651 93 119 2.0 2.0 0.00 0.00 0.00 52 1020.0
20260903174145 93 119 2.0 2.0 0.00 0.00 0.00 52 1020.0
20260903173641 93 77 2.0 2.0 0.00 0.00 0.00 53 1020.1
20260903173137 93 64 1.0 1.0 0.00 0.00 0.00 56 1020.0
20260903172637 93 64 1.0 2.0 0.00 0.00 0.00 56 1020.2
20260903172132 93 264 0.0 1.0 0.00 0.00 0.00 57 1020.1
20260903171632 93 135 2.0 2.0 0.00 0.00 0.00 57 1020.3
20260903171128 93 262 0.0 1.0 0.00 0.00 0.00 58 1020.5
20260903170627 90 77 2.0 2.0 0.00 0.00 0.00 58 1020.1
20260903170123 90 96 0.0 0.0 0.00 0.00 0.00 59 1020.4
20260903165620 88 283 2.0 2.0 0.00 0.00 0.00 63 1020.6
20260903165115 88 283 2.0 2.0 0.00 0.00 0.00 63 1020.7
20260903164610 88 230 0.0 1.0 0.00 0.00 0.00 62 1020.9
20260903164106 89 304 0.0 1.0 0.00 0.00 0.00 62 1020.6
20260903163600 0 0.0 0.0 0.00 0.00 0.00 1020.8
20260903163056 0 0.0 0.0 0.00 0.00 0.00 1020.8
20260903162552 0 0.0 0.0 0.00 0.00 0.00 1020.8
20260903162048 86 196 2.0 2.0 0.00 0.00 0.00 63 1020.7
20260903161543 86 196 2.0 2.0 0.00 0.00 0.00 63 1021.0
20260903161039 86 196 2.0 2.0 0.00 0.00 0.00 63 1021.0
20260903160539 86 196 2.0 2.0 0.00 0.00 0.00 63 1021.0
20260903160033 86 196 2.0 2.0 0.00 0.00 0.00 63 1021.0
20260903155532 86 196 2.0 2.0 0.00 0.00 0.00 63 1021.1
20260903155028 86 196 2.0 2.0 0.00 0.00 0.00 63 1021.1
20260903154524 86 196 2.0 2.0 0.00 0.00 0.00 63 1021.0
20260903154020 86 196 2.0 2.0 0.00 0.00 0.00 63 1020.8
20260903153515 86 196 2.0 2.0 0.00 0.00 0.00 63 1021.3
20260903153011 86 196 2.0 2.0 0.00 0.00 0.00 63 1021.5
20260903152507 86 196 2.0 2.0 0.00 0.00 0.00 63 1021.2
20260903152003 86 240 2.0 2.0 0.00 0.00 0.00 66 1021.4
20260903151502 85 280 0.0 1.0 0.00 0.00 0.00 65 1021.2
20260903150957 84 239 2.0 3.0 0.00 0.00 0.00 68 1021.2
20260903150456 84 353 1.0 2.0 0.00 0.00 0.00 68 1021.2
20260903145951 83 28 1.0 4.0 0.00 0.00 0.00 69 1021.3
20260903145446 83 252 2.0 2.0 0.00 0.00 0.00 72 1021.1
20260903144942 82 162 0.0 0.0 0.00 0.00 0.00 74 1021.2
20260903144441 81 274 2.0 2.0 0.00 0.00 0.00 75 1020.8
20260903143937 81 245 2.0 2.0 0.00 0.00 0.00 74 1021.2
20260903143433 81 180 1.0 4.0 0.00 0.00 0.00 73 1020.9
20260903142928 81 249 2.0 2.0 0.00 0.00 0.00 74 1020.9
20260903142424 82 129 1.0 3.0 0.00 0.00 0.00 72 1021.0
20260903141920 82 63 2.0 2.0 0.00 0.00 0.00 74 1021.0
20260903141415 82 278 0.0 0.0 0.00 0.00 0.00 74 1020.8
20260903140911 81 124 0.0 0.0 0.00 0.00 0.00 74 1021.0
20260903140407 81 304 0.0 0.0 0.00 0.00 0.00 75 1021.2
20260903135902 81 322 0.0 1.0 0.00 0.00 0.00 76 1021.0
20260903135357 81 298 1.0 1.0 0.00 0.00 0.00 75 1020.6
20260903134856 82 171 2.0 2.0 0.00 0.00 0.00 73 1020.8
20260903134351 82 320 0.0 0.0 0.00 0.00 0.00 72 1020.7
20260903133849 81 151 0.0 0.0 0.00 0.00 0.00 73 1020.7
20260903133345 81 266 0.0 1.0 0.00 0.00 0.00 74 1020.4
20260903132839 81 263 0.0 0.0 0.00 0.00 0.00 75 1020.6
20260903132335 80 84 0.0 1.0 0.00 0.00 0.00 74 1020.5
20260903131830 80 238 0.0 0.0 0.00 0.00 0.00 76 1020.6
20260903131330 80 336 0.0 0.0 0.00 0.00 0.00 77 1020.5
20260903130829 80 336 0.0 0.0 0.00 0.00 0.00 77 1020.6
20260903130324 80 336 0.0 0.0 0.00 0.00 0.00 77 1020.5
20260903125822 80 273 0.0 1.0 0.00 0.00 0.00 77 1020.9
20260903125318 80 311 0.0 0.0 0.00 0.00 0.00 77 1021.0
20260903124817 79 97 0.0 1.0 0.00 0.00 0.00 80 1020.8
20260903124313 77 261 0.0 1.0 0.00 0.00 0.00 83 1021.1